COLIBRI-S (RS67S)

Last updated on Mon Nov 03 2025 00:03:22 GMT+0000 (Coordinated Universal Time)

1 61746U 24199M 25306.55128120 .00018833 00000+0 51759-3 0 9991 2 61746 97.3311 174.5257 0011994 30.1085 330.0847 15.37188573102479
UTC large
Height (km)
Speed (km/s)
/
Latitude / Longitude
Inclination (degrees)
Orbital Period (minutes)
Azimuth
Elevation
Range (km)
Doppler Factor

Next 0 passes for location: London (51.5072 / 0.1276)

Sorry there are no passes over London.